{"data":{"norad_id":58406,"intl_designator":"2023-180E","name":"STARLINK-30925","alt_names":[],"object_type":"PAYLOAD","status":"ACTIVE","operator":null,"country":"US","launch_date":"2023-11-22","launch_site_code":"AFETR","launch_vehicle":null,"mission":null,"orbit_class":"UNKNOWN","rcs_meters":null,"size_class":null,"mass_kg":null,"dimensions":null,"purposes":["comms"],"wikipedia_slug":null,"has_3d_model":false,"image_url":null,"decayed_at":null,"tle_current":{"epoch":"2026-05-24T14:22:14.763936Z","epoch_age_seconds":106933,"freshness":"FRESH","line1":"1 58406U 23180E   26144.59878199  .00001409  00000+0  60731-4 0  9994","line2":"2 58406  43.0029 344.0004 0001042 273.0564  87.0169 15.27579758139114","mean_motion":15.27579758,"eccentricity":0.0001042,"inclination_deg":43.0029,"raan_deg":344.0004,"arg_perigee_deg":273.0564,"mean_anomaly_deg":87.0169,"bstar":6.0731e-5,"rev_number":13911,"period_min":94.26676364744,"perigee_km":482.33488500809,"apogee_km":483.76475634152,"semimajor_km":6861.1868206748,"source":"CELESTRAK","updated_at":"2026-05-25T13:38:18.617369Z"}}}